TimeEST,TemperatureF,Dew PointF,Humidity,Sea Level PressureIn,VisibilityMPH,Wind Direction,Wind SpeedMPH,Gust SpeedMPH,PrecipitationIn,Events,Conditions,WindDirDegrees,DateUTC
12:15 AM,30.6,22.8,73,30.05,3.0,WNW,9.2,16.1,N/A,Snow,Light Snow,290,2012-11-29 05:15:00
12:35 AM,30.2,21.7,71,30.06,4.0,WNW,9.2,16.1,N/A,Snow,Light Snow,290,2012-11-29 05:35:00
12:55 AM,30.6,19.9,65,30.06,10.0,West,10.4,-,N/A,,Overcast,270,2012-11-29 05:55:00
1:15 AM,30.2,17.8,60,30.07,10.0,West,8.1,19.6,N/A,,Overcast,260,2012-11-29 06:15:00
1:35 AM,29.8,16.3,57,30.09,10.0,WSW,8.1,-,N/A,,Mostly Cloudy,250,2012-11-29 06:35:00
2:15 AM,29.3,14.9,55,30.10,10.0,WSW,5.8,-,N/A,,Overcast,250,2012-11-29 07:15:00
2:35 AM,29.3,14.0,53,30.12,10.0,Calm,Calm,-,N/A,,Overcast,0,2012-11-29 07:35:00
2:55 AM,27.9,13.8,56,30.12,10.0,North,4.6,-,N/A,,Overcast,350,2012-11-29 07:55:00
3:15 AM,28.0,11.5,50,30.12,10.0,WNW,3.5,-,N/A,,Overcast,300,2012-11-29 08:15:00
3:35 AM,27.0,11.7,53,30.13,10.0,NW,5.8,-,N/A,,Overcast,320,2012-11-29 08:35:00
3:55 AM,26.4,10.8,52,30.14,10.0,NNW,8.1,-,N/A,,Overcast,330,2012-11-29 08:55:00
4:15 AM,25.5,10.0,52,30.15,10.0,NW,10.4,17.3,N/A,,Overcast,310,2012-11-29 09:15:00
4:35 AM,24.6,9.7,53,30.16,10.0,NW,6.9,-,N/A,,Overcast,320,2012-11-29 09:35:00
4:55 AM,24.1,9.3,53,30.16,10.0,North,5.8,-,N/A,,Overcast,360,2012-11-29 09:55:00
5:15 AM,21.4,8.4,57,30.15,10.0,Calm,Calm,-,N/A,,Overcast,0,2012-11-29 10:15:00
5:35 AM,23.0,9.1,55,30.15,10.0,East,3.5,-,N/A,,Overcast,80,2012-11-29 10:35:00
5:55 AM,21.0,8.4,58,30.15,10.0,ENE,6.9,-,N/A,,Overcast,60,2012-11-29 10:55:00
6:15 AM,23.0,8.8,55,30.16,10.0,Calm,Calm,-,N/A,,Overcast,0,2012-11-29 11:15:00
6:55 AM,23.4,8.1,52,30.17,10.0,Calm,Calm,-,N/A,,Overcast,0,2012-11-29 11:55:00
7:15 AM,22.1,10.4,61,30.16,10.0,Calm,Calm,-,N/A,,Overcast,0,2012-11-29 12:15:00
7:35 AM,22.3,10.2,60,30.16,10.0,South,4.6,-,N/A,,Overcast,190,2012-11-29 12:35:00
7:55 AM,23.2,10.6,59,30.15,10.0,South,4.6,-,N/A,,Overcast,170,2012-11-29 12:55:00
8:15 AM,23.0,11.3,61,30.15,10.0,SW,6.9,-,N/A,,Overcast,220,2012-11-29 13:15:00
8:35 AM,23.9,11.3,59,30.15,10.0,SSW,5.8,-,N/A,,Overcast,200,2012-11-29 13:35:00
8:55 AM,24.8,12.0,58,30.15,10.0,SSE,4.6,-,N/A,,Overcast,160,2012-11-29 13:55:00
9:15 AM,24.8,12.7,60,30.15,7.0,South,5.8,-,N/A,,Overcast,170,2012-11-29 14:15:00
9:35 AM,24.8,14.2,64,30.15,2.0,SSW,4.6,-,N/A,Snow,Light Snow,200,2012-11-29 14:35:00
9:55 AM,25.2,15.6,67,30.14,1.8,South,3.5,-,N/A,Snow,Light Snow,180,2012-11-29 14:55:00
10:15 AM,25.2,16.5,70,30.13,1.8,South,5.8,-,N/A,Snow,Light Snow,180,2012-11-29 15:15:00
10:35 AM,25.7,18.3,74,30.12,1.0,South,5.8,-,N/A,Snow,Light Snow,170,2012-11-29 15:35:00
10:55 AM,26.4,18.7,73,30.10,1.5,South,5.8,-,N/A,Snow,Light Snow,170,2012-11-29 15:55:00
11:15 AM,27.5,19.2,71,30.08,3.0,South,9.2,-,N/A,Snow,Light Snow,170,2012-11-29 16:15:00
11:35 AM,28.4,19.8,70,30.06,5.0,SSW,8.1,-,N/A,Snow,Light Snow,200,2012-11-29 16:35:00
11:55 AM,29.1,19.8,68,30.05,2.5,SSW,10.4,-,N/A,Snow,Light Snow,200,2012-11-29 16:55:00
12:15 PM,30.4,20.1,66,30.04,7.0,SSW,11.5,-,N/A,Snow,Light Snow,210,2012-11-29 17:15:00
12:35 PM,30.7,20.3,65,30.03,4.0,SSW,13.8,17.3,N/A,Snow,Light Snow,210,2012-11-29 17:35:00
12:55 PM,31.5,20.3,63,30.02,7.0,SSW,11.5,-,N/A,Snow,Light Snow,210,2012-11-29 17:55:00
1:15 PM,31.5,21.9,68,30.01,1.5,South,8.1,-,N/A,Snow,Light Snow,190,2012-11-29 18:15:00
1:35 PM,31.6,23.2,71,30.00,1.2,SSW,9.2,-,N/A,Snow,Light Snow,200,2012-11-29 18:35:00
1:55 PM,31.6,24.4,75,30.01,1.0,SSW,9.2,-,N/A,Snow,Light Snow,200,2012-11-29 18:55:00
2:15 PM,31.6,25.2,77,30.00,1.0,SSW,8.1,-,N/A,Snow,Light Snow,200,2012-11-29 19:15:00
2:35 PM,32.0,25.7,78,30.00,1.2,South,8.1,-,N/A,Snow,Light Snow,190,2012-11-29 19:35:00
2:55 PM,32.0,26.2,79,30.01,0.8,SSW,5.8,-,N/A,Snow,Light Snow,200,2012-11-29 19:55:00
3:15 PM,32.0,26.8,81,30.01,1.0,SSW,5.8,-,N/A,Snow,Light Snow,200,2012-11-29 20:15:00
3:35 PM,32.0,27.3,83,30.02,0.8,SSW,5.8,-,N/A,Snow,Light Snow,210,2012-11-29 20:35:00
3:55 PM,32.0,27.3,83,30.03,1.0,SSW,3.5,-,N/A,Snow,Light Snow,210,2012-11-29 20:55:00
4:15 PM,32.0,27.5,83,30.04,2.5,Calm,Calm,-,N/A,Snow,Light Snow,0,2012-11-29 21:15:00
4:35 PM,32.4,27.0,80,30.05,1.8,NW,10.4,19.6,N/A,Snow,Light Snow,310,2012-11-29 21:35:00
4:55 PM,31.5,25.0,77,30.06,3.0,NW,8.1,16.1,N/A,Snow,Light Snow,310,2012-11-29 21:55:00
5:15 PM,31.1,23.7,74,30.06,7.0,WNW,4.6,-,N/A,Snow,Light Snow,290,2012-11-29 22:15:00
5:35 PM,30.9,22.1,70,30.07,5.0,WNW,8.1,-,N/A,Snow,Light Snow,300,2012-11-29 22:35:00
5:55 PM,30.2,21.9,71,30.09,3.0,West,6.9,-,N/A,Snow,Light Snow,280,2012-11-29 22:55:00
6:15 PM,29.8,22.8,75,30.10,1.5,West,3.5,-,N/A,Snow,Light Snow,260,2012-11-29 23:15:00
6:35 PM,29.3,22.8,77,30.10,1.5,WNW,8.1,-,N/A,Snow,Light Snow,300,2012-11-29 23:35:00
6:55 PM,28.9,22.5,77,30.11,1.5,NW,8.1,-,N/A,Snow,Light Snow,310,2012-11-29 23:55:00
7:15 PM,28.0,21.9,78,30.11,1.5,NW,6.9,-,N/A,Snow,Light Snow,320,2012-11-30 00:15:00
7:35 PM,27.5,21.4,78,30.12,1.2,NW,13.8,18.4,N/A,Snow,Light Snow,310,2012-11-30 00:35:00
7:55 PM,26.6,20.5,78,30.13,1.5,WNW,6.9,-,N/A,Snow,Light Snow,300,2012-11-30 00:55:00
8:15 PM,26.2,20.3,78,30.15,1.0,NW,11.5,17.3,N/A,Snow,Snow,320,2012-11-30 01:15:00
8:35 PM,24.8,18.0,75,30.16,2.0,NW,9.2,18.4,N/A,Snow,Light Snow,310,2012-11-30 01:35:00
8:55 PM,24.8,17.6,74,30.17,4.0,WNW,6.9,-,N/A,Snow,Light Snow,300,2012-11-30 01:55:00
9:15 PM,24.6,17.8,75,30.18,2.5,NW,9.2,-,N/A,Snow,Light Snow,320,2012-11-30 02:15:00
9:35 PM,24.1,17.2,75,30.19,2.5,NW,10.4,-,N/A,Snow,Light Snow,310,2012-11-30 02:35:00
9:55 PM,23.2,16.0,74,30.21,4.0,WNW,6.9,-,N/A,Snow,Light Snow,300,2012-11-30 02:55:00
10:15 PM,22.1,11.7,64,30.22,10.0,NNW,9.2,16.1,N/A,,Overcast,330,2012-11-30 03:15:00
10:35 PM,21.2,10.4,63,30.23,10.0,NNW,10.4,-,N/A,,Overcast,340,2012-11-30 03:35:00
10:55 PM,21.0,10.6,64,30.24,10.0,NNW,6.9,-,N/A,,Overcast,330,2012-11-30 03:55:00
11:15 PM,20.7,10.9,66,30.25,5.0,NNW,10.4,-,N/A,Snow,Light Snow,330,2012-11-30 04:15:00
11:35 PM,20.3,10.9,67,30.26,4.0,North,10.4,-,N/A,Snow,Light Snow,350,2012-11-30 04:35:00
11:55 PM,19.4,11.1,70,30.27,2.5,NNW,10.4,-,N/A,Snow,Light Snow,340,2012-11-30 04:55:00